Location: Izdebno
(52.6670°N, 16.2170°E)
Time: 15:51:55
(UTC+01:00)

A-11 Canister half - All Passes

Search period start: 27 January 2023 00:00
Search period end: 06 February 2023 00:00
Orbit: 1514 x 1685 km, 47.2° (Epoch: 26 January)

Date Brightness Start Highest point End Pass type
(mag) Time Alt. Az. Time Alt. Az. Time Alt. Az.
27 Jan - 12:04:44 10° SSW 12:12:28 29° SE 12:20:01 10° E daylight
27 Jan - 14:06:50 10° SW 14:15:58 55° SSE 14:24:54 10° E daylight
27 Jan - 16:10:58 10° W 16:20:10 63° S 16:29:13 10° ESE daylight
27 Jan - 18:15:34 10° W 18:24:04 42° SSW 18:32:32 10° SE visible
27 Jan - 20:21:43 10° W 20:26:55 17° SW 20:32:09 10° SSW visible
28 Jan - 11:42:02 10° SSW 11:49:38 27° SE 11:57:03 10° E daylight
28 Jan - 13:43:57 10° SW 13:53:05 54° SSE 14:02:00 10° E daylight
28 Jan - 15:48:02 10° W 15:57:15 63° S 16:06:19 10° ESE daylight
28 Jan - 17:52:38 10° W 18:01:13 44° SSW 18:09:44 10° SE visible
28 Jan - 19:58:34 10° W 20:04:08 18° SW 20:09:43 10° SSW visible
29 Jan - 11:19:22 10° S 11:26:49 26° SE 11:34:04 10° E daylight
29 Jan - 13:21:05 10° SW 13:30:12 52° SSE 13:39:05 10° E daylight
29 Jan - 15:25:06 10° W 15:34:22 64° S 15:43:27 10° ESE daylight
29 Jan - 17:29:41 10° W 17:38:21 45° SSW 17:46:56 10° SE visible
29 Jan - 19:35:27 10° W 19:41:20 19° SW 19:47:14 10° S visible
30 Jan - 10:56:43 10° S 11:03:59 25° SE 11:11:04 10° E daylight
30 Jan - 12:58:12 10° SW 13:07:19 51° SSE 13:16:12 10° E daylight
30 Jan - 15:02:10 10° W 15:11:28 64° S 15:20:33 10° ESE daylight
30 Jan - 17:06:45 10° W 17:15:30 47° SSW 17:24:08 10° SE visible
30 Jan - 19:12:22 10° W 19:18:33 20° SW 19:24:44 10° S visible
31 Jan - 10:34:04 10° S 10:41:09 24° SE 10:48:04 10° E daylight
31 Jan - 12:35:20 10° SW 12:44:26 50° SSE 12:53:17 10° E daylight
31 Jan - 14:39:14 10° WSW 14:48:34 64° S 14:57:40 10° ESE daylight
31 Jan - 16:43:48 10° W 16:52:38 48° SSW 17:01:19 10° SE daylight
31 Jan - 18:49:17 10° W 18:55:45 22° SW 19:02:11 10° S visible
01 Feb - 10:11:27 10° S 10:18:19 22° SE 10:25:02 10° E daylight
01 Feb - 12:12:28 10° SW 12:21:33 49° SSE 12:30:22 10° E daylight
01 Feb - 14:16:19 10° WSW 14:25:40 64° S 14:34:46 10° ESE daylight
01 Feb - 16:20:52 10° W 16:29:46 50° SSW 16:38:30 10° SE daylight
01 Feb - 18:26:14 10° W 18:32:56 23° SW 18:39:36 10° S visible
02 Feb - 09:48:52 10° S 09:55:30 21° SE 10:01:59 10° E daylight
02 Feb - 11:49:37 10° SW 11:58:40 47° SSE 12:07:28 10° E daylight
02 Feb - 13:53:23 10° WSW 14:02:46 64° S 14:11:53 10° E daylight
02 Feb - 15:57:56 10° W 16:06:53 51° SSW 16:15:41 10° SE daylight
02 Feb - 18:03:12 10° W 18:10:08 24° SW 18:17:01 10° S visible
03 Feb - 09:26:18 10° S 09:32:41 20° SE 09:38:56 10° E daylight
03 Feb - 11:26:46 10° SW 11:35:48 46° SSE 11:44:33 10° E daylight
03 Feb - 13:30:27 10° WSW 13:39:51 64° S 13:48:59 10° E daylight
03 Feb - 15:35:00 10° W 15:44:01 53° SSW 15:52:51 10° SE daylight
03 Feb - 17:40:10 10° W 17:47:19 26° SW 17:54:24 10° S visible
04 Feb - 09:03:46 10° S 09:09:52 19° SE 09:15:50 10° E daylight
04 Feb - 11:03:55 10° SW 11:12:55 44° SSE 11:21:38 10° E daylight
04 Feb - 13:07:31 10° WSW 13:16:57 64° S 13:26:06 10° E daylight
04 Feb - 15:12:02 10° W 15:21:08 54° SSW 15:30:01 10° SE daylight
04 Feb - 17:17:09 10° W 17:24:30 27° SW 17:31:46 10° S visible
05 Feb - 08:41:17 10° SSE 08:47:03 17° SE 08:52:43 10° E daylight
05 Feb - 10:41:05 10° SW 10:50:03 43° SSE 10:58:43 10° E daylight
05 Feb - 12:44:35 10° WSW 12:54:02 63° S 13:03:12 10° E daylight
05 Feb - 14:49:06 10° W 14:58:15 55° SSW 15:07:10 10° SE daylight
05 Feb - 16:54:09 10° W 17:01:41 28° SW 17:09:08 10° SSE daylight
